[[[{"header":{"parameterUnit":"kt","parameterCategory":2,"dx":1,"dy":1,"la1":30.253999710083008,"la2":30.299108505249023,"lo1":-89.0895004272461,"lo2":-89.04439544677734,"nx":28,"ny":28,"refTime":"2022-09-23T21:00:00:Z","depth":0,"parameterNumber":1,"parameterNumberName":"U-component_of_WINDS"},"data":[-5.4059,-5.4183,-5.4177,-5.4317,-5.4336,-5.4431,-5.4463,-5.4504,-5.4536,-5.4649,-5.4714,-5.4722,-5.4752,-5.4829,-5.4899,-5.4901,-5.4933,-5.4981,-5.4976,-5.4762,-5.4732,-5.4704,-5.4675,-5.4987,-5.4988,-5.5199,-5.5201,-5.5203,-5.3905,-5.3924,-5.3996,-5.4062,-5.4123,-5.4073,-5.4122,-5.4177,-5.4264,-5.4303,-5.4366,-5.4466,-5.4544,-5.4558,-5.4633,-5.4692,-5.4674,-5.4713,-5.4711,-5.4717,-5.4487,-5.4456,-5.4727,-5.4727,-5.4727,-5.4727,-5.4727,-5.4727,-5.3624,-5.3698,-5.3734,-5.3812,-5.3843,-5.3887,-5.3958,-5.3964,-5.4035,-5.411,-5.4089,-5.4188,-5.4227,-5.4313,-5.4341,-5.4419,-5.4375,-5.4416,-5.4428,-5.4439,-5.4454,-5.4155,-5.4431,-5.443,-5.4429,-5.4428,-5.4428,0,-5.3417,-5.3407,-5.3475,-5.3541,-5.3597,-5.3648,-5.3694,-5.3737,-5.3713,-5.3773,-5.3858,-5.3907,-5.4003,-5.4084,-5.4152,-5.4173,-5.4129,-5.4123,-5.4152,-5.4166,-5.417,-5.4173,-5.3802,-5.4116,-5.4113,-5.4111,-5.411,-5.4108,-5.3136,-5.3222,-5.3256,-5.3305,-5.3327,-5.3406,-5.3452,-5.3424,-5.3474,-5.3527,-5.3594,-5.3673,-5.3736,-5.3875,-5.3883,-5.3956,-5.3936,-5.4057,-5.3946,-5.3955,-5.3942,-5.3938,-5.3948,-5.408,-5.4083,-5.4086,-5.4089,0,-5.298,-5.2968,-5.3099,-5.3124,-5.3132,-5.3225,-5.3246,-5.3319,-5.3317,-5.3418,-5.3439,-5.3437,-5.3522,-5.351,-5.3604,-5.3596,-5.3752,-5.3729,-5.3739,-5.3735,-5.3844,-5.3836,-5.4195,-5.4242,-5.3914,-5.3917,-5.392,0,-5.2737,-5.2851,-5.2827,-5.2904,-5.303,-5.2998,-5.3125,-5.3135,-5.3166,-5.3245,-5.3191,-5.3266,-5.3238,-5.3312,-5.33,-5.3425,-5.3441,-5.3443,-5.344,-5.345,-5.3451,-5.3479,-5.3466,-5.3422,-5.342,-5.3419,-5.3417,0,-5.2495,-5.2614,-5.2738,-5.2764,-5.2801,-5.286,-5.2879,-5.2913,-5.2958,-5.3014,-5.3043,-5.3111,-5.3149,-5.3204,-5.3187,-5.3113,-5.3338,-5.3233,-5.3341,-5.3342,-5.3394,-5.3391,-5.371,-5.3415,-5.3415,-5.3414,-5.3413,0,-5.2298,-5.2353,-5.2534,-5.2564,-5.2596,-5.2678,-5.2742,-5.2808,-5.2848,-5.2845,-5.2889,-5.2852,-5.2957,-5.2854,-5.3,-5.2909,-5.295,-5.2961,-5.2968,-5.298,-5.2866,-5.3052,-5.3353,-5.3386,-5.2987,-5.2984,-5.298,0,-5.2026,-5.2204,-5.2177,-5.2349,-5.243,-5.2363,-5.2453,-5.2489,-5.2492,-5.2562,-5.2564,-5.2645,-5.2565,-5.2588,-5.2662,-5.2669,-5.2787,-5.2652,-5.2758,-5.2762,-5.2753,-5.3029,-5.3079,-5.3288,-5.2935,-5.2939,-5.2943,0,-5.1814,-5.1855,-5.1888,-5.1916,-5.1957,-5.2024,-5.2127,-5.2198,-5.2246,-5.2291,-5.2379,-5.2489,-5.2434,-5.2473,-5.245,-5.2527,-5.2706,-5.2458,-5.2459,-5.2506,-5.2909,-5.2956,-5.2991,-5.2674,-5.268,-5.2684,-5.2907,0,-5.1524,-5.161,-5.1696,-5.1758,-5.1807,-5.1912,-5.1897,-5.195,-5.1922,-5.1922,-5.2049,-5.2075,-5.2149,-5.2183,-5.2157,-5.2336,-5.2305,-5.2246,-5.2147,-5.2327,-5.2401,-5.243,-5.2039,-5.2036,-5.2034,-5.2031,0,0,-5.1269,-5.1391,-5.1358,-5.1455,-5.1495,-5.1423,-5.1538,-5.1568,-5.1631,-5.1661,-5.1605,-5.1765,-5.1789,-5.1945,-5.2,-5.2028,-5.206,-5.1997,-5.2241,-5.2264,-5.2286,-5.2364,-5.2395,-5.2027,-5.2026,-5.2025,-5.2024,0,-5.116,-5.1182,-5.1294,-5.1324,-5.1365,-5.1359,-5.1386,-5.1415,-5.142,-5.1542,-5.1484,-5.1558,-5.1685,-5.172,-5.1754,-5.1977,-5.1931,-5.2,-5.2127,-5.2216,-5.2242,-5.2266,-5.2349,-5.2378,-5.2018,-5.2019,-5.2019,0,-5.095,-5.0971,-5.1022,-5.1106,-5.1132,-5.1216,-5.1108,-5.12,-5.1262,-5.1181,-5.1304,-5.1317,-5.136,-5.1508,-5.1573,-5.1525,-5.1814,-5.1719,-5.1734,-5.1742,-5.1827,-5.186,-5.1888,-5.1512,-5.151,-5.1508,0,0,-5.0859,-5.0937,-5.095,-5.1081,-5.1102,-5.1093,-5.1136,-5.1112,-5.1151,-5.1167,-5.1182,-5.1223,-5.1297,-5.1347,-5.1416,-5.1579,-5.1588,-5.1657,-5.1681,-5.17,-5.1719,-5.1809,-5.1841,-5.1502,-5.1502,-5.1502,0,0,-5.0816,-5.0835,-5.0799,-5.0948,-5.0987,-5.1009,-5.1091,-5.1048,-5.1107,-5.1094,-5.1059,-5.1069,-5.1206,-5.1221,-5.1137,-5.1381,-5.1283,-5.1303,-5.1366,-5.1396,-5.142,-5.1415,-5.1031,0,0,0,0,0,-5.0696,-5.0832,-5.08,-5.0822,-5.0927,-5.1027,-5.104,-5.1014,-5.0945,-5.1011,-5.1017,-5.0962,-5.1169,-5.1093,-5.1117,-5.1212,-5.1419,-5.1434,-5.1448,-5.1568,-5.1599,-5.1626,0,0,0,0,0,0,-5.0704,-5.0732,-5.0796,-5.0824,-5.0847,-5.1022,-5.09,-5.0897,-5.0938,-5.0926,-5.0963,-5.0963,-5.0944,-5.1079,-5.1101,-5.1192,-5.1024,-5.1425,-5.1437,-5.1448,-5.1579,-5.1604,-5.1627,0,0,0,0,0,-5.0711,-5.0733,-5.0908,-5.0822,-5.0842,-5.084,-5.0895,-5.0891,-5.0922,-5.0932,-5.093,-5.0899,-5.0947,-5.0964,-5.1092,-5.1183,-5.1008,-5.1016,-5.1433,-5.1443,-5.1451,-5.1591,0,0,0,0,0,0,-5.0716,-5.0731,-5.0911,-5.0917,-5.0768,-5.083,-5.0838,-5.0886,-5.0925,-5.0925,-5.0865,-5.0855,-5.0951,-5.0963,-5.0977,-5.1181,-5.0996,-5.1004,-5.1009,-5.144,-5.1448,-5.1455,0,0,0,0,0,0,-5.0719,-5.0736,-5.0914,-5.0847,-5.0845,-5.0821,-5.0828,-5.0933,-5.0926,-5.0856,-5.0849,-5.086,-5.0932,-5.0964,-5.0974,-5.1138,-5.0986,-5.0994,-5.1,-5.1003,-5.1447,-5.1453,0,0,0,0,0,0,-5.0726,-5.074,-5.0846,-5.0844,-5.0841,-5.0898,-5.0913,-5.1022,-5.0868,-5.0856,-5.0853,-5.0846,-5.0934,-5.0943,-5.0972,-5.1133,-5.1137,-5.0986,-5.0992,-5.0996,-5.0998,0,0,0,0,0,0,0,-5.0731,-5.0639,-5.088,-5.0841,-5.0838,-5.0965,-5.0967,-5.0968,-5.0866,-5.086,-5.0855,-5.0849,-5.094,-5.0949,-5.0958,-5.1129,0,0,-5.0986,-5.099,0,0,0,0,0,0,0,0,-5.0632,-5.0637,-5.088,-5.0881,-5.0883,-5.0966,-5.0967,-5.0968,-5.0865,-5.086,-5.0856,-5.0851,-5.0943,-5.095,-5.0957,0,0,0,0,0,0,0,0,0,0,0,0,0,0,0,-5.088,-5.0881,0,-5.0966,-5.0967,-5.0968,-5.0864,-5.0861,-5.0857,-5.0853,-5.0945,-5.0951,-5.0957,0,0,0,0,0,0,0,0,0,0,0,0,0,0,0,0,0,0,0,0,0,0,0,0,0,0,0,0,0,0,0,0,0,0,0,0,0,0,0,0,0,0,0,0,0,0,0,0,0,0,0,0,0,0,0,0,0,0,0,0,0,0,0,0,0,0,0,0,0]}],[{"header":{"parameterUnit":"kt","parameterCategory":2,"dx":1,"dy":1,"la1":30.253999710083008,"la2":30.299108505249023,"lo1":-89.0895004272461,"lo2":-89.04439544677734,"nx":28,"ny":28,"refTime":"2022-09-23T21:00:00:Z","depth":0,"parameterNumber":2,"parameterNumberName":"V-component_of_WINDS"},"data":[-7.7987,-7.8042,-7.8039,-7.8101,-7.8108,-7.8149,-7.8162,-7.8179,-7.8191,-7.8237,-7.8263,-7.8264,-7.8273,-7.8302,-7.8329,-7.8328,-7.834,-7.8362,-7.8358,-7.8263,-7.8249,-7.8236,-7.8224,-7.8365,-7.8365,-7.8457,-7.8458,-7.8458,-7.7917,-7.7926,-7.7958,-7.7986,-7.8013,-7.799,-7.801,-7.8033,-7.807,-7.8084,-7.811,-7.815,-7.818,-7.8182,-7.821,-7.8234,-7.8224,-7.8242,-7.824,-7.8242,-7.814,-7.8127,-7.825,-7.825,-7.825,-7.825,-7.825,-7.825,-7.7791,-7.7824,-7.784,-7.7874,-7.7887,-7.7906,-7.7936,-7.7938,-7.7967,-7.7998,-7.7987,-7.8027,-7.804,-7.8071,-7.808,-7.8111,-7.809,-7.8108,-7.8112,-7.8117,-7.8124,-7.7993,-7.8115,-7.8115,-7.8114,-7.8114,-7.8114,0,-7.7697,-7.7693,-7.7723,-7.7752,-7.7777,-7.7798,-7.7818,-7.7836,-7.7823,-7.7847,-7.7883,-7.7902,-7.7939,-7.7971,-7.7996,-7.8002,-7.7979,-7.7975,-7.7988,-7.7995,-7.7998,-7.7997,-7.7832,-7.7972,-7.7971,-7.797,-7.7969,-7.7969,-7.757,-7.7609,-7.7624,-7.7645,-7.7655,-7.7689,-7.7709,-7.7694,-7.7715,-7.7735,-7.7764,-7.7796,-7.7821,-7.7876,-7.7875,-7.7902,-7.7891,-7.7945,-7.7895,-7.79,-7.7893,-7.7891,-7.7895,-7.7955,-7.7957,-7.7958,-7.796,0,-7.7499,-7.7493,-7.7552,-7.7562,-7.7566,-7.7607,-7.7614,-7.7646,-7.7643,-7.7686,-7.7695,-7.7689,-7.7723,-7.7713,-7.7749,-7.7743,-7.7808,-7.7797,-7.7804,-7.7801,-7.7849,-7.7845,-7.8005,-7.8025,-7.7878,-7.788,-7.7881,0,-7.7388,-7.744,-7.7428,-7.7463,-7.7519,-7.7503,-7.7559,-7.7562,-7.7573,-7.7607,-7.758,-7.7611,-7.7593,-7.7623,-7.7613,-7.7665,-7.7671,-7.767,-7.7667,-7.7673,-7.7673,-7.7683,-7.7677,-7.7657,-7.7657,-7.7656,-7.7655,0,-7.7278,-7.7331,-7.7387,-7.7399,-7.7414,-7.744,-7.7447,-7.7459,-7.7478,-7.7501,-7.7512,-7.7539,-7.7554,-7.7574,-7.7562,-7.7529,-7.7625,-7.7576,-7.7623,-7.7623,-7.7645,-7.7644,-7.7788,-7.7654,-7.7654,-7.7654,-7.7653,0,-7.7188,-7.7213,-7.7295,-7.7307,-7.7321,-7.7357,-7.7384,-7.7412,-7.7427,-7.7424,-7.7441,-7.7421,-7.7465,-7.7418,-7.7478,-7.7438,-7.7454,-7.7456,-7.7459,-7.7463,-7.741,-7.7493,-7.7631,-7.7645,-7.7465,-7.7464,-7.7463,0,-7.7063,-7.7144,-7.7132,-7.7209,-7.7245,-7.7213,-7.7253,-7.7267,-7.7266,-7.7295,-7.7293,-7.7326,-7.7288,-7.7297,-7.7328,-7.7327,-7.7379,-7.732,-7.7361,-7.7363,-7.7359,-7.7486,-7.7509,-7.7602,-7.7442,-7.7444,-7.7446,0,-7.6966,-7.6985,-7.7,-7.7012,-7.7029,-7.7059,-7.7104,-7.7134,-7.7154,-7.7173,-7.721,-7.7255,-7.7229,-7.7244,-7.723,-7.7263,-7.7344,-7.723,-7.723,-7.7252,-7.7431,-7.7453,-7.7469,-7.7327,-7.733,-7.7332,-7.743,0,-7.6833,-7.6872,-7.6911,-7.6939,-7.696,-7.7008,-7.6999,-7.7022,-7.7008,-7.7006,-7.706,-7.7068,-7.7097,-7.7111,-7.7097,-7.7176,-7.7161,-7.7132,-7.7085,-7.7168,-7.72,-7.7213,-7.7038,-7.7037,-7.7035,-7.7034,0,0,-7.6715,-7.6772,-7.6756,-7.6801,-7.6818,-7.6784,-7.6836,-7.6848,-7.6873,-7.6885,-7.6859,-7.6925,-7.6932,-7.6998,-7.7023,-7.7035,-7.7048,-7.7019,-7.7128,-7.7139,-7.7149,-7.7183,-7.7197,-7.7032,-7.7032,-7.7031,-7.7031,0,-7.6665,-7.6676,-7.6728,-7.674,-7.6758,-7.6753,-7.6766,-7.6777,-7.6778,-7.6831,-7.6801,-7.6832,-7.6884,-7.6897,-7.6909,-7.7011,-7.6986,-7.702,-7.7079,-7.7117,-7.7129,-7.7139,-7.7176,-7.7189,-7.7028,-7.7028,-7.7028,0,-7.6568,-7.6577,-7.6601,-7.6639,-7.665,-7.6687,-7.6637,-7.6678,-7.6705,-7.6664,-7.6717,-7.672,-7.6735,-7.6799,-7.6827,-7.6804,-7.6931,-7.6888,-7.6896,-7.6899,-7.6935,-7.6949,-7.6962,-7.6791,-7.679,-7.6789,0,0,-7.6526,-7.6562,-7.6567,-7.6628,-7.6637,-7.6631,-7.6649,-7.6637,-7.6652,-7.6658,-7.6662,-7.6676,-7.6706,-7.6727,-7.6754,-7.6826,-7.6828,-7.686,-7.6871,-7.688,-7.6888,-7.6926,-7.6941,-7.6786,-7.6786,-7.6786,0,0,-7.6505,-7.6514,-7.6497,-7.6566,-7.6582,-7.659,-7.6627,-7.6606,-7.663,-7.6624,-7.6604,-7.6607,-7.6666,-7.667,-7.6632,-7.6737,-7.6691,-7.67,-7.6733,-7.6747,-7.6758,-7.6756,-7.658,0,0,0,0,0,-7.6449,-7.6513,-7.6498,-7.6508,-7.6555,-7.6599,-7.6604,-7.659,-7.6558,-7.6588,-7.6587,-7.6559,-7.6645,-7.6611,-7.6621,-7.6663,-7.6749,-7.6755,-7.6762,-7.6821,-7.6836,-7.6848,0,0,0,0,0,0,-7.6453,-7.6466,-7.6496,-7.6507,-7.6517,-7.6596,-7.6539,-7.6537,-7.6555,-7.6549,-7.656,-7.656,-7.6547,-7.6605,-7.6614,-7.6655,-7.6577,-7.6751,-7.6757,-7.6762,-7.6826,-7.6838,-7.6848,0,0,0,0,0,-7.6456,-7.6466,-7.6545,-7.6505,-7.6514,-7.6511,-7.6536,-7.6534,-7.6548,-7.6547,-7.6545,-7.6535,-7.6549,-7.6555,-7.661,-7.6651,-7.657,-7.6574,-7.6755,-7.6759,-7.6763,-7.6832,0,0,0,0,0,0,-7.6458,-7.6464,-7.6547,-7.6549,-7.6481,-7.6506,-7.651,-7.6532,-7.6544,-7.6543,-7.652,-7.6516,-7.6551,-7.6555,-7.656,-7.6651,-7.6565,-7.6569,-7.6571,-7.6758,-7.6762,-7.6765,0,0,0,0,0,0,-7.6458,-7.6466,-7.6548,-7.6517,-7.6516,-7.6502,-7.6505,-7.6549,-7.6544,-7.6517,-7.6513,-7.6518,-7.6542,-7.6556,-7.656,-7.6629,-7.6561,-7.6565,-7.6567,-7.6568,-7.6761,-7.6764,0,0,0,0,0,0,-7.6461,-7.6468,-7.6517,-7.6516,-7.6514,-7.6537,-7.654,-7.6588,-7.652,-7.6517,-7.6513,-7.651,-7.6544,-7.6547,-7.6559,-7.6627,-7.6629,-7.6561,-7.6564,-7.6565,-7.6566,0,0,0,0,0,0,0,-7.6464,-7.6423,-7.6534,-7.6514,-7.6513,-7.6569,-7.6569,-7.657,-7.6519,-7.6517,-7.6514,-7.6512,-7.6543,-7.6546,-7.655,-7.6626,0,0,-7.6561,-7.6563,0,0,0,0,0,0,0,0,-7.642,-7.6422,-7.6534,-7.6535,-7.6535,-7.6569,-7.6569,-7.657,-7.6519,-7.6517,-7.6515,-7.6513,-7.6543,-7.6546,-7.6549,0,0,0,0,0,0,0,0,0,0,0,0,0,0,0,-7.6534,-7.6535,0,-7.6569,-7.6569,-7.657,-7.6519,-7.6517,-7.6515,-7.6513,-7.6544,-7.6547,-7.6549,0,0,0,0,0,0,0,0,0,0,0,0,0,0,0,0,0,0,0,0,0,0,0,0,0,0,0,0,0,0,0,0,0,0,0,0,0,0,0,0,0,0,0,0,0,0,0,0,0,0,0,0,0,0,0,0,0,0,0,0,0,0,0,0,0,0,0,0,0]}]]]